STARLINK-30363, 57744

Orbit data source: Space-Track

STARLINK-30363, 57744 is a payload satellite owned by SpaceX/Seattle (US) in LEO that was launched on Fri, 01 Sep 2023 UTC via an FALCON 9 launch vehicle from the Air Force Eastern Test Range (AFETR). Payload-class satellites include a variety of spacecraft equipped with specific instruments for various scientific and technological missions. These include communications satellites like Starlink; space stations such as the ISS; scientific satellites like the Hubble; Earth observation satellites from companies like Planet Labs, Umbra, and HawkEye 360; GPS; miniature CubeSats for education and research; and military/defense satellites.

Loading next visibility...
Identifier
57744, 2023-131N
Orbit
LEO
Country
Flag of USUS
Related business
Manufacturer
SpaceX/Seattle
Mission
Operational Commercial Communications
Bus & Motor
STARLINK V2M, Unknown motor
Mass
730 kg wet, ~700 kg dry
Launch date (UTC)
2023-09-01 (3 years ago)
Launch vehicle
FALCON 9
Launch site
Air Force Eastern Test Range (AFETR)
Object type
Payload
Rocket body
Debris
Shape & HBR
Box + 2 Pan, 17.7 m
Radar Cross Section
33.884 m², Large (>1 m²)

Expand to show TLE details & history
Last TLE update: 3 days ago

TLE from 3 days ago
0 STARLINK-30363
1 57744U 23131N   26170.40940171  .00001282  00000-0  56141-4 0  9993
2 57744  43.0052 303.4867 0001659 259.7828 100.2837 15.27565996155643
Epoch: 2026-06-19T09:49Z
TLE epoch observation values (Epoch: 2026-06-19T09:49:32.307Z)
Latitude
-0.00001°
Longitude
-111.53671°
Altitude
483.07 km
Speed
7.626 km/s
True Right ascension
20h 13m 56s
True Declination
0° 00' 00"
Sunlit
Object was in full shadow at epoch
Visualization orbit readout
Latitude
Unknown
Longitude
Unknown
Altitude
Unknown
Speed
Unknown
Apparent Right ascension
Unknown
Apparent Declination
Unknown
Sunlit
N/A
Visualization observer readout
Local Sidereal Time
21:23:59
Azimuth
Unknown
Elevation
Unknown
Doppler factor
Unknown
Orbital elements
Apogee altitude
486.174 km
Perigee altitude
483.897 km
Semi-major axis
6,863.172 km
Eccentricity
0.00017
Inclination
43.0052°
RAAN
303.4867°
Arg. of periapsis
259.7828°
True anomaly
100.3024°
Mean anomaly
100.2837°
Eccentric anomaly
100.29305°
Mean motion
3.8173 °/min
Orbital period
94.31 mins
BSTAR
0.000056141
Loading maneuver chart data...
Computing Atmospheric mass density...
Loading historical data...
Loading historical data...
Loading historical data...
Loading historical data...
Loading historical data...
Loading historical data...
Loading historical data...

Documentation

Showing up to 5 results
|